Location: Ferintosh
(52.7647°N, 112.9692°W)
Time: 15:41:41
(UTC+00:00)

Transit 2A Rocket - Pass Details

Date: 28 May 2024
Orbit: 583 x 910 km, 66.7° (Epoch: 22 June)

Event Time Altitude Azimuth Distance (km) Brightness Sun altitude
Rises 19:26:42 0° 315° (NW) 3,442 8.1 58.9°
Reaches altitude 10° 19:29:30 10° 303° (WNW) 2,539 7.6 58.9°
Maximum altitude 19:34:18 26° 249° (WSW) 1,695 7.4 58.9°
Drops below altitude 10° 19:39:11 10° 195° (SSW) 2,591 8.4 58.8°
Sets 19:42:05 0° 184° (S) 3,526 8.9 58.8°
